Tracking 22881 objects as of 19-Apr-2021
HD Live streaming from Space Station
objects crossing your sky now

GORIZONT 32

Track GORIZONT 32 now!
GORIZONT 32 is classified as:


NORAD ID: 23880
Int'l Code: 1996-034A
Perigee: 35,771.0 km
Apogee: 35,867.2 km
Inclination: 14.5 °
Period: 1,437.4 minutes
Semi major axis: 42190 km
RCS: 17.7827 m2 (large)
Launch date: May 25, 1996
Source: Commonwealth of Independent States (former USSR) (CIS)
Launch site: TYURATAM MISSILE AND SPACE COMPLEX (TTMTR)

Telecommunications; augment television channels available to the people of Siberia.
aabbcc
Your satellite tracking list
Your tracking list is empty




NASA's NSSDC Master Catalog

Two Line Element Set (TLE):
1 23880U 96034A   21108.91627497  .00000095  00000-0  00000+0 0  9993
2 23880  14.4537   9.5482 0011396 345.1190 204.0600  1.00181501 91153
Source of the keplerian elements: AFSPC